Date String (YYYY-MM-DD hh:mm:ss) UTC,Instrument flags,Ambient pressure (hPa),Sample flow (lpm),Bypass flow (lpm),Sample temperature (°C),Ambient temperature (°C),ASC tube jacket temperature (°C),LED temperature (°C),Box temperature (°C),Sample RH (%),Span deviation,Mass concentration (μg/m³),Mass concentration (μg/m³),Mass concentration (μg/m³)
DateTimeUTC,F1_M11,P_M11,Q1_M11,Q2_M11,T1_M11,T2_M11,T3_M11,T4_M11,T5_M11,U1_M11,ZSPAN_M11,X0_M11,X2_M11,X1_M11
2023-02-20 17:00:00,,0815.9,5.00,0.00,21.5,20.0,00.0,30.5,23.1,11.1,0000.0,0010.94,0002.22,0000.88
2023-02-20 17:01:00,,0815.9,5.00,0.00,21.5,20.0,00.0,30.5,23.1,11.1,0000.0,0011.29,0002.21,0000.88
2023-02-20 17:02:00,,0816.3,5.00,0.00,21.5,19.8,00.0,30.5,23.1,11.1,0000.0,0010.37,0002.09,0000.87
2023-02-20 17:03:00,,0816.2,5.02,0.00,21.4,19.7,00.0,30.5,23.0,11.2,0000.0,0010.32,0002.09,0000.86
2023-02-20 17:04:00,,0816.6,5.02,0.00,21.4,19.6,00.0,30.5,22.9,11.3,0000.0,0009.81,0002.06,0000.86
2023-02-20 17:05:00,,0816.7,5.02,0.00,21.4,19.5,00.0,30.4,22.9,11.3,0000.0,0009.74,0002.10,0000.87
2023-02-20 17:06:00,,0816.3,4.98,0.00,21.3,19.4,00.0,30.4,22.9,11.4,0000.0,0009.91,0002.10,0000.88
2023-02-20 17:07:00,,0816.3,5.00,0.00,21.3,19.3,00.0,30.4,22.8,11.5,0000.0,0009.96,0002.02,0000.89
2023-02-20 17:08:00,,0816.2,5.01,0.00,21.3,19.8,00.0,30.4,22.9,11.3,0000.0,0009.80,0001.98,0000.89
2023-02-20 17:09:00,,0816.0,4.99,0.00,21.4,21.2,00.0,30.3,23.2,11.3,0000.0,0009.10,0001.95,0000.88
2023-02-20 17:10:00,,0816.6,4.98,0.00,21.6,22.5,00.0,30.3,23.6,11.1,0000.0,0009.25,0001.97,0000.88
2023-02-20 17:11:00,,0816.5,5.04,0.00,21.7,22.5,00.0,30.4,23.7,11.1,0000.0,0008.05,0001.88,0000.87
2023-02-20 17:12:00,,0816.6,5.01,0.00,21.7,21.8,00.0,30.4,23.6,11.2,0000.0,0006.57,0001.87,0000.87
2023-02-20 17:13:00,,0816.6,4.99,0.00,21.7,21.3,00.0,30.5,23.4,11.1,0000.0,0005.57,0001.88,0000.87
2023-02-20 17:14:00,,0816.6,4.99,0.00,21.7,20.9,00.0,30.5,23.3,11.1,0000.0,0006.22,0001.80,0000.88
2023-02-20 17:15:00,,0816.5,4.95,0.00,21.6,20.6,00.0,30.5,23.3,11.1,0000.0,0006.55,0001.75,0000.88
2023-02-20 17:16:00,,0816.5,5.00,0.00,21.6,20.4,00.0,30.5,23.3,11.2,0000.0,0006.51,0001.71,0000.87
2023-02-20 17:17:00,,0816.3,5.01,0.00,21.6,20.2,00.0,30.5,23.3,11.2,0000.0,0006.48,0001.72,0000.86
2023-02-20 17:18:00,,0816.4,5.00,0.00,21.6,20.1,00.0,30.5,23.2,11.2,0000.0,0006.58,0001.70,0000.86
2023-02-20 17:19:00,,0816.4,5.01,0.00,21.6,20.1,00.0,30.5,23.2,11.1,0000.0,0006.49,0001.68,0000.86
2023-02-20 17:20:00,,0816.7,5.00,0.00,21.6,20.0,00.0,30.5,23.2,11.2,0000.0,0006.27,0001.71,0000.87
2023-02-20 17:21:00,,0816.9,5.00,0.00,21.6,19.9,00.0,30.5,23.2,11.2,0000.0,0005.93,0001.68,0000.87
2023-02-20 17:22:00,,0816.8,5.00,0.00,21.5,19.9,00.0,30.5,23.2,11.3,0000.0,0005.95,0001.74,0000.87
2023-02-20 17:23:00,,0817.0,5.00,0.00,21.5,19.8,00.0,30.5,23.1,11.3,0000.0,0006.17,0001.79,0000.86
2023-02-20 17:24:00,,0816.6,5.01,0.00,21.5,19.8,00.0,30.5,23.1,11.4,0000.0,0006.42,0001.74,0000.85
2023-02-20 17:25:00,,0816.4,5.01,0.00,21.5,19.7,00.0,30.5,23.0,11.3,0000.0,0006.84,0001.78,0000.86
2023-02-20 17:26:00,,0816.8,5.02,0.00,21.4,19.7,00.0,30.5,23.0,11.4,0000.0,0007.14,0001.83,0000.86
2023-02-20 17:27:00,,0816.8,4.99,0.00,21.4,19.7,00.0,30.4,23.0,11.5,0000.0,0007.13,0001.84,0000.86
2023-02-20 17:28:00,,0816.7,5.00,0.00,21.4,19.7,00.0,30.4,23.0,11.3,0000.0,0007.04,0001.81,0000.86
2023-02-20 17:29:00,,0817.0,5.02,0.00,21.5,20.4,00.0,30.4,23.2,11.2,0000.0,0007.89,0001.79,0000.85
2023-02-20 17:30:00,,0817.0,5.01,0.00,21.6,21.8,00.0,30.3,23.5,11.1,0000.0,0008.13,0001.80,0000.85
2023-02-20 17:31:00,,0816.9,5.00,0.00,21.7,22.8,00.0,30.3,23.8,11.2,0000.0,0008.35,0001.82,0000.84
2023-02-20 17:32:00,,0816.9,4.98,0.00,21.8,22.5,00.0,30.4,23.8,11.3,0000.0,0009.38,0002.02,0000.85
2023-02-20 17:33:00,,0816.9,5.03,0.00,21.8,22.0,00.0,30.5,23.8,11.1,0000.0,0010.79,0002.21,0000.86
2023-02-20 17:34:00,,0816.8,5.01,0.00,21.8,21.5,00.0,30.6,23.7,11.2,0000.0,0011.99,0002.37,0000.87
2023-02-20 17:35:00,,0816.6,5.00,0.00,21.8,21.2,00.0,30.6,23.6,11.0,0000.0,0013.43,0002.51,0000.87
2023-02-20 17:36:00,,0816.5,5.02,0.00,21.8,20.9,00.0,30.6,23.6,11.2,0000.0,0013.58,0002.58,0000.87
2023-02-20 17:37:00,,0816.6,5.00,0.00,21.8,20.6,00.0,30.6,23.5,11.2,0000.0,0013.44,0002.62,0000.86
2023-02-20 17:38:00,,0816.9,5.00,0.00,21.8,20.4,00.0,30.6,23.5,11.1,0000.0,0013.50,0002.65,0000.86
2023-02-20 17:39:00,,0816.9,5.02,0.00,21.8,20.3,00.0,30.7,23.4,11.3,0000.0,0013.34,0002.68,0000.85
2023-02-20 17:40:00,,0816.8,5.00,0.00,21.8,20.2,00.0,30.7,23.4,11.2,0000.0,0012.63,0002.68,0000.84
2023-02-20 17:41:00,,0816.9,5.00,0.00,21.7,20.0,00.0,30.7,23.3,11.2,0000.0,0013.31,0002.76,0000.85
2023-02-20 17:42:00,,0816.8,5.01,0.00,21.7,19.9,00.0,30.6,23.3,11.2,0000.0,0013.26,0002.78,0000.84
2023-02-20 17:43:00,,0817.0,5.00,0.00,21.7,19.9,00.0,30.6,23.3,11.3,0000.0,0012.32,0002.59,0000.83
2023-02-20 17:44:00,,0816.8,5.00,0.00,21.7,19.9,00.0,30.6,23.3,11.6,0000.0,0011.15,0002.37,0000.81
2023-02-20 17:45:00,,0816.9,5.01,0.00,21.7,19.9,00.0,30.6,23.3,11.5,0000.0,0010.75,0002.19,0000.81
2023-02-20 17:46:00,,0817.0,5.02,0.00,21.7,20.5,00.0,30.6,23.4,11.4,0000.0,0009.48,0002.06,0000.81
2023-02-20 17:47:00,,0816.7,4.99,0.00,21.8,21.9,00.0,30.5,23.8,11.1,0000.0,0008.55,0002.00,0000.79
2023-02-20 17:48:00,,0816.5,5.00,0.00,21.9,22.6,00.0,30.6,24.0,11.1,0000.0,0008.32,0001.90,0000.78
2023-02-20 17:49:00,,0816.8,5.01,0.00,22.0,22.1,00.0,30.6,23.9,11.3,0000.0,0008.42,0001.94,0000.78
2023-02-20 17:50:00,,0817.1,4.99,0.00,22.0,21.6,00.0,30.7,23.8,11.1,0000.0,0008.87,0001.94,0000.77
2023-02-20 17:51:00,,0817.3,4.99,0.00,22.0,21.2,00.0,30.7,23.8,11.0,0000.0,0009.01,0001.93,0000.77
2023-02-20 17:52:00,,0817.1,5.04,0.00,22.0,21.0,00.0,30.8,23.8,11.2,0000.0,0008.09,0001.89,0000.77
2023-02-20 17:53:00,,0816.9,4.98,0.00,22.0,20.9,00.0,30.8,23.7,11.4,0000.0,0007.89,0001.82,0000.77
2023-02-20 17:54:00,,0817.1,5.00,0.00,22.0,20.7,00.0,30.8,23.7,11.3,0000.0,0008.29,0001.80,0000.77
2023-02-20 17:55:00,,0816.8,5.01,0.00,22.0,20.6,00.0,30.8,23.6,11.2,0000.0,0008.33,0001.75,0000.75
2023-02-20 17:56:00,,0816.9,5.01,0.00,21.9,20.5,00.0,30.8,23.6,11.3,0000.0,0007.71,0001.72,0000.74
2023-02-20 17:57:00,,0817.1,4.99,0.00,21.9,20.4,00.0,30.8,23.6,11.5,0000.0,0007.70,0001.71,0000.73
2023-02-20 17:58:00,,0817.1,5.02,0.00,21.9,20.3,00.0,30.8,23.6,11.2,0000.0,0007.93,0001.67,0000.74
2023-02-20 17:59:00,,0817.0,5.02,0.00,21.9,20.3,00.0,30.8,23.6,11.2,0000.0,0007.97,0001.67,0000.74
